Precipitable_Water
1.68 1.72 1.73 1.70 1.67 1.74 1.93 2.02 2.05 2.08 2.14 2.19 2.24 2.29 2.25 2.22 2.10 2.11 2.10 2.07 2.10 2.05
1.75 1.73 1.78 1.82 1.82 1.77 1.95 2.02 2.02 2.08 2.20 2.21 2.30 2.34 2.24 2.16 2.08 2.10 2.08 2.06 2.07 2.02
1.79 1.78 1.80 1.84 1.84 1.89 1.99 2.01 2.04 2.10 2.20 2.20 2.26 2.27 2.17 2.09 2.11 2.08 2.08 2.09 2.06 2.08
1.70 1.73 1.78 1.77 1.79 1.84 1.91 1.97 2.03 2.21 2.22 2.15 2.13 2.07 1.99 1.94 2.00 2.00 2.00 2.04 2.02 2.00
1.70 1.73 1.69 1.72 1.77 1.89 1.89 1.97 1.98 1.99 2.00 1.99 1.97 1.98 1.86 1.91 1.95 1.93 1.90 1.92 1.91 1.93
1.56 1.59 1.59 1.62 1.72 1.84 1.86 1.87 1.91 1.92 1.80 1.75 1.79 1.82 1.88 1.90 1.90 1.94 1.91 1.85 1.82 1.87
1.41 1.45 1.51 1.59 1.63 1.66 1.72 1.75 1.77 1.74 1.67 1.68 1.70 1.72 1.72 1.70 1.77 1.75 1.73 1.74 1.71 1.72
1.34 1.43 1.52 1.54 1.56 1.59 1.64 1.67 1.69 1.66 1.61 1.62 1.58 1.59 1.52 1.52 1.52 1.56 1.59 1.66 1.71 1.69
1.25 1.32 1.38 1.46 1.47 1.53 1.56 1.56 1.55 1.52 1.53 1.56 1.58 1.57 1.53 1.48 1.40 1.42 1.45 1.47 1.61 1.66
1.24 1.24 1.32 1.40 1.42 1.41 1.45 1.52 1.49 1.49 1.56 1.55 1.53 1.56 1.59 1.59 1.58 1.47 1.44 1.47 1.52 1.54
1.24 1.23 1.28 1.33 1.34 1.38 1.45 1.48 1.52 1.56 1.60 1.66 1.72 1.68 1.55 1.53 1.60 1.61 1.53 1.54 1.56 1.52
1.35 1.29 1.29 1.28 1.32 1.39 1.40 1.43 1.47 1.55 1.63 1.69 1.73 1.84 1.87 1.79 1.67 1.52 1.50 1.50 1.54 1.55
1.46 1.42 1.35 1.36 1.38 1.46 1.48 1.43 1.51 1.55 1.66 1.79 1.79 1.89 1.89 1.94 1.87 1.71 1.63 1.51 1.55 1.54
1.52 1.50 1.52 1.52 1.52 1.51 1.52 1.50 1.53 1.60 1.70 1.76 1.86 1.88 1.81 1.81 1.83 1.78 1.68 1.69 1.50 1.55
Wind_Speed
14 15 15 15 16 17 18 19 19 20 20 21 20 19 19 18 19 19 19 18 19 19
13 14 15 15 16 17 18 19 19 20 21 22 21 21 19 19 19 19 19 19 18 19
13 14 15 15 15 15 17 17 18 18 19 19 18 17 17 17 17 18 19 19 19 19
10 11 12 13 14 14 15 16 17 16 15 15 14 14 14 15 16 17 17 17 16 16
7 8 9 10 11 11 12 13 14 13 13 13 13 13 13 13 13 14 14 15 15 17
5 5 6 7 7 8 9 10 11 11 12 12 12 12 12 12 12 12 12 12 13 15
3 3 3 4 4 5 6 7 9 10 10 11 11 11 11 11 12 12 12 12 12 13
4 3 3 2 2 3 4 5 6 7 8 9 9 10 11 12 13 13 13 13 13 13
6 5 6 5 5 5 5 5 6 7 8 8 10 11 12 13 13 14 15 14 13 13
9 8 8 8 8 8 8 8 9 9 9 10 11 12 13 15 15 15 16 16 15 14
13 12 11 11 11 11 11 11 12 11 11 12 13 16 16 16 17 18 19 18 18 16
16 15 15 15 15 14 14 14 15 15 15 14 14 14 15 20 20 21 21 21 20 19
19 18 17 17 17 18 18 18 17 17 17 17 17 17 18 18 20 22 22 22 22 22
18 18 19 19 19 20 20 19 19 19 19 19 19 19 19 19 20 22 24 24 24 24
Wind_Direction
239 242 244 242 243 243 243 244 246 247 249 250 253 255 256 259 254 253 254 257 257 254
244 244 245 248 248 248 247 248 250 251 252 254 255 255 258 258 253 251 252 257 262 256
249 249 248 250 251 250 249 250 252 252 253 258 256 257 256 256 251 251 255 259 261 255
253 250 249 250 252 251 251 251 253 255 255 255 257 258 258 256 253 253 255 254 255 252
249 249 249 250 250 251 252 251 250 250 251 254 257 256 253 254 252 251 252 252 254 256
242 245 243 243 248 250 251 247 245 247 249 252 252 252 252 251 251 251 253 255 260 265
220 236 224 233 240 248 251 252 244 248 252 251 250 250 249 249 248 248 252 257 264 271
222 227 225 228 237 252 253 254 253 253 253 251 251 253 251 251 251 252 255 259 264 273
232 239 243 249 255 264 266 265 260 259 258 259 260 258 256 255 255 255 255 258 264 274
243 248 252 256 262 267 267 267 263 262 263 264 264 262 260 258 259 258 256 258 263 271
247 253 257 260 264 269 270 267 268 265 271 272 279 263 261 261 260 259 259 259 261 266
249 255 259 263 266 270 270 272 272 271 267 268 279 288 272 266 262 260 259 259 258 262
250 255 260 264 268 271 272 273 271 270 268 270 275 283 280 280 267 259 260 257 256 259
253 257 261 266 269 271 271 271 270 270 270 271 276 280 279 278 278 266 258 258 256 258